• In Kazakhstan
  • List of Countries
  • For 7 days
  • Water Temperature
  • Satellite Maps
  • Weather Map
  • News
  • Weather Widgets
  • user-avatar
    Login

    Hourly Weather Córdoba

    Today, 19 November, Monday

    Time Temperature Precipitation Wind Pressure Humidity
    00:00 +17°C° 0 mm 3 mps 725 mmHg 43%
    01:00 +17°C° 0 mm 3 mps 725 mmHg 44%
    02:00 +17°C° 0 mm 3 mps 725 mmHg 45%
    03:00 +16°C° 0 mm 3 mps 725 mmHg 47%
    04:00 +16°C° 0 mm 3 mps 724 mmHg 48%
    05:00 +16°C° 0 mm 3 mps 724 mmHg 50%
    06:00 +18°C° 0 mm 4 mps 725 mmHg 47%
    07:00 +20°C° 0 mm 4 mps 725 mmHg 44%
    08:00 +22°C° 0 mm 5 mps 725 mmHg 40%
    09:00 +24°C° 0 mm 6 mps 725 mmHg 38%
    10:00 +26°C° 0 mm 6 mps 725 mmHg 36%
    11:00 +28°C° 0 mm 7 mps 725 mmHg 34%
    12:00 +29°C° 0 mm 7 mps 724 mmHg 33%
    13:00 +30°C° 0 mm 7 mps 723 mmHg 33%
    14:00 +30°C° 0 mm 7 mps 723 mmHg 32%
    15:00 +30°C° 0 mm 7 mps 722 mmHg 34%
    16:00 +29°C° 0 mm 6 mps 722 mmHg 35%
    17:00 +29°C° 0 mm 6 mps 722 mmHg 37%
    18:00 +27°C° 0 mm 5 mps 722 mmHg 42%
    19:00 +25°C° 0 mm 4 mps 722 mmHg 47%
    20:00 +22°C° 0 mm 4 mps 723 mmHg 52%
    21:00 +21°C° 0 mm 3 mps 723 mmHg 53%
    22:00 +20°C° 0 mm 3 mps 724 mmHg 55%
    23:00 +20°C° 0 mm 3 mps 724 mmHg 56%

    Tomorrow, 20 November, Tuesday

    Time Temperature Precipitation Wind Pressure Humidity
    00:00 +20°C° 0 mm 3 mps 724 mmHg 58%
    01:00 +19°C° 0 mm 3 mps 723 mmHg 59%
    02:00 +19°C° 0 mm 2 mps 723 mmHg 60%
    03:00 +19°C° 0 mm 3 mps 723 mmHg 62%
    04:00 +18°C° 0 mm 3 mps 723 mmHg 63%
    05:00 +18°C° 0 mm 3 mps 723 mmHg 65%
    06:00 +20°C° 0 mm 3 mps 724 mmHg 59%
    07:00 +22°C° 0 mm 4 mps 724 mmHg 54%
    08:00 +25°C° 0 mm 5 mps 725 mmHg 49%
    09:00 +27°C° 0 mm 5 mps 725 mmHg 46%
    10:00 +29°C° 0 mm 5 mps 725 mmHg 42%
    11:00 +30°C° 0 mm 6 mps 725 mmHg 38%
    12:00 +32°C° 0 mm 6 mps 724 mmHg 37%
    13:00 +33°C° 0 mm 6 mps 723 mmHg 36%
    14:00 +34°C° 0 mm 6 mps 723 mmHg 35%
    15:00 +33°C° 0 mm 6 mps 722 mmHg 37%
    16:00 +33°C° 0 mm 6 mps 722 mmHg 38%
    17:00 +33°C° 0 mm 6 mps 721 mmHg 40%
    18:00 +29°C° 0 mm 5 mps 721 mmHg 45%
    19:00 +27°C° 0 mm 4 mps 722 mmHg 50%
    20:00 +25°C° 0 mm 4 mps 722 mmHg 55%
    21:00 +25°C° 0 mm 3 mps 722 mmHg 57%
    22:00 +24°C° 0 mm 3 mps 723 mmHg 59%
    23:00 +22°C° 0 mm 3 mps 723 mmHg 61%

    Day after tomorrow, 21 November, Wednesday

    Time Temperature Precipitation Wind Pressure Humidity
    00:00 +22°C° 0 mm 3 mps 722 mmHg 61%
    01:00 +23°C° 0 mm 2 mps 722 mmHg 62%
    02:00 +21°C° 0 mm 2 mps 722 mmHg 62%
    03:00 +21°C° 0 mm 2 mps 722 mmHg 62%
    04:00 +21°C° 0 mm 2 mps 722 mmHg 62%
    05:00 +21°C° 0 mm 2 mps 722 mmHg 62%
    06:00 +24°C° 0 mm 3 mps 722 mmHg 56%
    07:00 +26°C° 0 mm 3 mps 722 mmHg 50%
    08:00 +29°C° 0 mm 4 mps 723 mmHg 44%
    09:00 +30°C° 0 mm 4 mps 722 mmHg 40%
    10:00 +33°C° 0 mm 5 mps 722 mmHg 37%
    11:00 +35°C° 0 mm 5 mps 722 mmHg 34%
    12:00 +36°C° 0 mm 6 mps 721 mmHg 33%
    13:00 +38°C° 0 mm 6 mps 721 mmHg 33%
    14:00 +38°C° 0 mm 6 mps 720 mmHg 32%
    15:00 +38°C° 0 mm 6 mps 719 mmHg 34%
    16:00 +38°C° 0 mm 6 mps 719 mmHg 36%
    17:00 +36°C° 0 mm 6 mps 718 mmHg 38%
    18:00 +34°C° 0 mm 5 mps 718 mmHg 44%
    19:00 +32°C° 0 mm 5 mps 718 mmHg 50%
    20:00 +29°C° 0 mm 4 mps 718 mmHg 56%
    21:00 +29°C° 0.1 mm 4 mps 719 mmHg 58%
    22:00 +28°C° 0.1 mm 4 mps 719 mmHg 61%
    23:00 +27°C° 0.1 mm 3 mps 719 mmHg 63%

    22 November, Thursday

    Time Temperature Precipitation Wind Pressure Humidity
    00:00 +27°C° 0.4 mm 3 mps 719 mmHg 66%
    01:00 +26°C° 0.4 mm 3 mps 719 mmHg 69%
    02:00 +25°C° 0.4 mm 2 mps 718 mmHg 72%
    03:00 +25°C° 0.4 mm 2 mps 718 mmHg 73%
    04:00 +25°C° 0.4 mm 2 mps 718 mmHg 74%
    05:00 +25°C° 0.4 mm 2 mps 718 mmHg 75%
    06:00 +27°C° 0 mm 3 mps 718 mmHg 68%
    07:00 +29°C° 0 mm 3 mps 719 mmHg 61%
    08:00 +30°C° 0 mm 3 mps 719 mmHg 54%
    09:00 +32°C° 0.8 mm 4 mps 719 mmHg 52%
    10:00 +33°C° 0.8 mm 4 mps 720 mmHg 51%
    11:00 +34°C° 0.8 mm 5 mps 720 mmHg 49%
    12:00 +32°C° 2 mm 6 mps 720 mmHg 57%
    13:00 +28°C° 2 mm 7 mps 720 mmHg 64%
    14:00 +26°C° 2 mm 9 mps 720 mmHg 71%
    15:00 +26°C° 0.2 mm 8 mps 720 mmHg 67%
    16:00 +26°C° 0.2 mm 7 mps 720 mmHg 64%
    17:00 +26°C° 0.2 mm 6 mps 720 mmHg 61%
    18:00 +24°C° 0 mm 6 mps 721 mmHg 63%
    19:00 +23°C° 0 mm 5 mps 721 mmHg 65%
    20:00 +22°C° 0 mm 5 mps 721 mmHg 66%
    21:00 +22°C° 0 mm 5 mps 722 mmHg 68%
    22:00 +22°C° 0 mm 5 mps 723 mmHg 70%
    23:00 +21°C° 0 mm 5 mps 723 mmHg 72%

    23 November, Friday

    Time Temperature Precipitation Wind Pressure Humidity
    00:00 +21°C° 0 mm 5 mps 723 mmHg 75%
    01:00 +20°C° 0 mm 5 mps 723 mmHg 79%
    02:00 +19°C° 0 mm 5 mps 723 mmHg 82%
    03:00 +19°C° 0 mm 5 mps 723 mmHg 82%
    04:00 +18°C° 0 mm 4 mps 723 mmHg 82%
    05:00 +17°C° 0 mm 4 mps 723 mmHg 81%
    06:00 +18°C° 0 mm 4 mps 724 mmHg 78%
    07:00 +18°C° 0 mm 4 mps 724 mmHg 75%
    08:00 +18°C° 0 mm 4 mps 724 mmHg 72%
    09:00 +20°C° 0 mm 4 mps 724 mmHg 66%
    10:00 +22°C° 0 mm 4 mps 724 mmHg 60%
    11:00 +23°C° 0 mm 4 mps 724 mmHg 54%
    12:00 +25°C° 0 mm 4 mps 723 mmHg 52%
    13:00 +26°C° 0 mm 4 mps 723 mmHg 51%
    14:00 +27°C° 0 mm 4 mps 722 mmHg 50%
    15:00 +26°C° 0 mm 4 mps 722 mmHg 53%
    16:00 +26°C° 0 mm 4 mps 722 mmHg 57%
    17:00 +25°C° 0 mm 5 mps 721 mmHg 60%
    18:00 +23°C° 0 mm 4 mps 722 mmHg 67%
    19:00 +21°C° 0 mm 3 mps 722 mmHg 73%
    20:00 +20°C° 0 mm 2 mps 723 mmHg 79%
    21:00 +20°C° 0 mm 2 mps 723 mmHg 80%
    22:00 +20°C° 0 mm 2 mps 723 mmHg 80%
    23:00 +20°C° 0 mm 1 mps 724 mmHg 80%

    24 November, Saturday

    Time Temperature Precipitation Wind Pressure Humidity
    00:00 +20°C° 0 mm 1 mps 723 mmHg 82%
    01:00 +19°C° 0 mm 1 mps 723 mmHg 84%
    02:00 +19°C° 0 mm 1 mps 722 mmHg 86%
    03:00 +18°C° 0 mm 1 mps 722 mmHg 88%
    04:00 +18°C° 0 mm 1 mps 722 mmHg 90%
    05:00 +18°C° 0 mm 1 mps 722 mmHg 92%
    06:00 +19°C° 0 mm 1 mps 723 mmHg 86%
    07:00 +20°C° 0 mm 1 mps 723 mmHg 80%
    08:00 +21°C° 0 mm 2 mps 724 mmHg 75%
    09:00 +23°C° 0 mm 2 mps 724 mmHg 70%
    10:00 +25°C° 0 mm 2 mps 724 mmHg 64%
    11:00 +26°C° 0 mm 2 mps 723 mmHg 59%
    12:00 +27°C° 0 mm 3 mps 723 mmHg 56%
    13:00 +28°C° 0 mm 3 mps 722 mmHg 53%
    14:00 +30°C° 0 mm 4 mps 722 mmHg 49%
    15:00 +29°C° 0 mm 4 mps 721 mmHg 50%
    16:00 +29°C° 0 mm 4 mps 721 mmHg 51%
    17:00 +29°C° 0 mm 4 mps 721 mmHg 51%
    18:00 +27°C° 0 mm 3 mps 721 mmHg 57%
    19:00 +25°C° 0 mm 3 mps 722 mmHg 64%
    20:00 +23°C° 0 mm 2 mps 722 mmHg 70%
    21:00 +23°C° 0 mm 2 mps 722 mmHg 74%
    22:00 +21°C° 0 mm 2 mps 723 mmHg 78%
    23:00 +20°C° 0 mm 2 mps 723 mmHg 82%
    Show more